Location: Caixon
(43.4106°N, 0.0273°E)
Time: 22:49:01
(UTC+00:00)

Cosmos 2154 Rocket - Pass Details

Date: 16 October 2021
Orbit: 965 x 997 km, 82.9° (Epoch: 07 December)

Event Time Altitude Azimuth Distance (km) Brightness Sun altitude
Rises 04:30:28 0° 345° (NNW) 3,680 6.9 -19.7°
Reaches altitude 10° 04:33:06 10° 340° (NNW) 2,724 6.2 -19.3°
Maximum altitude 04:38:55 43° 271° (W) 1,327 4.2 -18.2°
Drops below altitude 10° 04:44:41 10° 201° (SSW) 2,697 6.1 -17.2°
Sets 04:47:17 0° 195° (SSW) 3,639 6.8 -16.7°
